Cartersville, GA

5:10 AM EST on December 16, 2017 (GMT -0500)
Cartersville

Weather History for KVPC - December, 2012

Change the Weather History Date:

Monday, December 10, 2012

  Actual Average Record
Temperature  
Mean Temperature 56 °F 43 °F  
Max Temperature 64 °F 54 °F 78 °F (2007)
Min Temperature 46 °F 33 °F 20 °F (2017)
Degree Days  
Heating Degree Days 9 22  
Month to date heating degree days 204  
Since 1 July heating degree days 813  
Growing Degree Days 6 (Base 50)    
Moisture  
Dew Point 59 °F    
Average Humidity 93    
Maximum Humidity 100    
Minimum Humidity 80    
Precipitation  
Precipitation 0.92 in 0.16 in 1.96 in (1961)
Month to date precipitation 1.63  
Year to date precipitation 47.32  
Snow  
Snow 0.00 in - - ()
Month to date snowfall  
Since 1 July snowfall  
Snow Depth -    
Sea Level Pressure  
Sea Level Pressure 29.81 in    
Wind  
Wind Speed 4 mph (South)    
Max Wind Speed 8 mph    
Max Gust Speed 20 mph    
Visibility 7 miles    
Events Fog , Rain , Thunderstorm    
T = Trace of Precipitation, MM = Missing Value Source: NWS Daily Summary

Daily Weather History Graph

Daily Weather History Graph

Search for Another Location

Airport or City:

Trip Planner

Search our weather history database for the weather conditions in past years. The results will help you decide how hot, cold, wet, or windy it might be!

Date:

Astronomy

Dec. 10, 2012 Rise Set
Actual Time 7:34 AM EST 5:30 PM EST
Civil Twilight 7:06 AM EST 5:57 PM EST
Nautical Twilight 6:35 AM EST 6:29 PM EST
Astronomical Twilight 6:05 AM EST 6:59 PM EST
Moon 4:22 AM EST (12/10) 3:14 PM EST (12/10)
Length of Visible Light 10h 51m
Length of Day
9h 55m
Waning Crescent, 10% of the Moon is Illuminated
Dec 10
Waning Crescent
Dec 13
New
Dec 20
First Quarter
Dec 28
Full
Jan 4
Last Quarter

Hourly Weather History & Observations

Time (EST) Temp. Dew Point Humidity Pressure Visibility Wind Dir Wind Speed Gust Speed Precip Events Conditions
12:53 AM 62.1 °F 55.9 °F 80% 29.91 in 10.0 mi Variable 6.9 mph - N/A   Overcast
1:53 AM 62.1 °F 55.9 °F 80% 29.88 in 10.0 mi South 5.8 mph - N/A   Overcast
2:53 AM 62.1 °F 57.0 °F 84% 29.87 in 10.0 mi South 6.9 mph - N/A   Overcast
3:53 AM 62.1 °F 57.9 °F 86% 29.84 in 10.0 mi South 6.9 mph - N/A   Mostly Cloudy
4:20 AM 62.6 °F 57.2 °F 82% 29.86 in 10.0 mi South 5.8 mph - N/A   Mostly Cloudy
4:49 AM 62.6 °F 59.0 °F 88% 29.85 in 10.0 mi Variable 4.6 mph - N/A   Overcast
4:53 AM 63.0 °F 59.0 °F 87% 29.82 in 10.0 mi Variable 5.8 mph - N/A   Overcast
5:53 AM 64.0 °F 60.1 °F 87% 29.81 in 10.0 mi South 8.1 mph - N/A   Overcast
6:38 AM 64.4 °F 60.8 °F 88% 29.83 in 10.0 mi South 6.9 mph - N/A   Overcast
6:53 AM 64.0 °F 60.1 °F 87% 29.80 in 10.0 mi South 6.9 mph - N/A   Overcast
7:53 AM 64.9 °F 60.1 °F 84% 29.80 in 10.0 mi South 8.1 mph 16.1 mph N/A   Overcast
8:12 AM 64.4 °F 60.8 °F 88% 29.82 in 10.0 mi South 6.9 mph - N/A   Overcast
8:53 AM 64.9 °F 60.1 °F 84% 29.81 in 10.0 mi Variable 6.9 mph 19.6 mph N/A   Overcast
8:57 AM 64.4 °F 60.8 °F 88% 29.84 in 1.0 mi Variable 4.6 mph 19.6 mph 0.11 in Rain Heavy Rain
9:02 AM 62.6 °F 60.8 °F 94% 29.84 in 0.8 mi Calm Calm - 0.15 in Rain Rain
9:07 AM 60.8 °F 60.8 °F 100% 29.84 in 1.2 mi Variable 4.6 mph - 0.16 in Rain Rain
9:09 AM 60.8 °F 60.8 °F 100% 29.84 in 3.0 mi Variable 4.6 mph - 0.16 in Rain Rain
9:21 AM 60.8 °F 60.8 °F 100% 29.84 in 5.0 mi Calm Calm - 0.17 in Rain Light Rain
9:53 AM 61.0 °F 60.1 °F 97% 29.82 in 10.0 mi Calm Calm - 0.17 in Rain Light Rain
10:30 AM 60.8 °F 60.8 °F 100% 29.83 in 9.0 mi Calm Calm - 0.01 in Rain Light Rain
10:53 AM 61.0 °F 60.1 °F 97% 29.80 in 7.0 mi Calm Calm - 0.01 in Rain Light Rain
11:08 AM 60.8 °F 60.8 °F 100% 29.81 in 2.0 mi Calm Calm - 0.07 in Rain Heavy Rain
11:18 AM 60.8 °F 60.8 °F 100% 29.81 in 1.8 mi Calm Calm - 0.12 in Rain Rain
11:23 AM 60.8 °F 60.8 °F 100% 29.81 in 0.8 mi Calm Calm - 0.19 in Rain , Thunderstorm Heavy Rain
11:30 AM 60.8 °F 60.8 °F 100% 29.82 in 0.5 mi Variable 3.5 mph - 0.28 in Fog , Rain , Thunderstorm Heavy Rain
11:35 AM 60.8 °F 60.8 °F 100% 29.81 in 0.8 mi Calm Calm - 0.33 in Rain Heavy Rain
11:39 AM 60.8 °F 60.8 °F 100% 29.80 in 1.0 mi Calm Calm - 0.35 in Rain Heavy Rain
11:43 AM 60.8 °F 60.8 °F 100% 29.81 in 1.2 mi Calm Calm - 0.37 in Rain Rain
11:53 AM 60.1 °F 60.1 °F 100% 29.79 in 1.5 mi Variable 3.5 mph - 0.42 in Rain Heavy Rain
12:16 PM 59.0 °F 59.0 °F 100% 29.80 in 2.0 mi Variable 3.5 mph - 0.10 in Rain Rain
12:22 PM 59.0 °F 59.0 °F 100% 29.81 in 2.0 mi Calm Calm - 0.12 in Rain Rain
12:31 PM 60.8 °F 60.8 °F 100% 29.80 in 1.5 mi Calm Calm - 0.16 in Rain Rain
12:39 PM 60.8 °F 60.8 °F 100% 29.80 in 2.0 mi Calm Calm - 0.18 in Rain Rain
12:43 PM 60.8 °F 60.8 °F 100% 29.79 in 3.0 mi Calm Calm - 0.18 in Rain Light Rain
12:53 PM 60.1 °F 60.1 °F 100% 29.76 in 6.0 mi South 3.5 mph - 0.19 in Rain Light Rain
1:53 PM 60.1 °F 59.0 °F 96% 29.74 in 3.0 mi South 3.5 mph - 0.06 in Rain Rain
2:53 PM 61.0 °F 60.1 °F 97% 29.72 in 9.0 mi South 5.8 mph - 0.06 in Rain Light Rain
3:53 PM 61.0 °F 60.1 °F 97% 29.71 in 10.0 mi South 3.5 mph - 0.01 in   Overcast
4:53 PM 61.0 °F 60.1 °F 97% 29.70 in 10.0 mi Calm Calm - N/A   Overcast
5:09 PM 60.8 °F 60.8 °F 100% 29.73 in 10.0 mi Calm Calm - N/A   Overcast
5:53 PM 61.0 °F 60.1 °F 97% 29.71 in 10.0 mi Calm Calm - N/A   Mostly Cloudy
6:10 PM 60.8 °F 60.8 °F 100% 29.74 in 10.0 mi Calm Calm - N/A   Mostly Cloudy
6:53 PM 61.0 °F 59.0 °F 93% 29.73 in 10.0 mi Calm Calm - N/A   Overcast
7:41 PM 59.0 °F 55.4 °F 88% 29.77 in 10.0 mi Variable 5.8 mph - N/A   Overcast
7:53 PM 57.9 °F 55.0 °F 90% 29.76 in 10.0 mi Variable 4.6 mph - N/A   Overcast
8:53 PM 54.0 °F 52.0 °F 93% 29.81 in 10.0 mi Variable 3.5 mph - N/A   Overcast
9:53 PM 51.1 °F 48.0 °F 89% 29.84 in 10.0 mi Calm Calm - N/A   Overcast
10:53 PM 48.9 °F 44.1 °F 83% 29.88 in 10.0 mi Calm Calm - N/A   Overcast
11:53 PM 46.9 °F 41.0 °F 80% 29.90 in 10.0 mi Variable 5.8 mph - N/A   Overcast